| time (UTC) | temp F | wind direction | speed MPH | gust MPH | rain 1hr in | rain 24hr in | rain mn in | humidity % | barometer mb |
| 20260903234758 | 65 | 337 | 3.0 | 4.0 | 0.00 | 0.00 | 0.00 | 87 | 1021.8 |
| 20260903234719 | 66 | 340 | 2.0 | 3.0 | 0.00 | 0.00 | 0.00 | 86 | 1022.0 |
| 20260903232758 | 66 | 353 | 2.0 | 2.0 | 0.00 | 0.00 | 0.00 | 86 | 1022.0 |
| 20260903231758 | 65 | 349 | 2.0 | 3.0 | 0.00 | 0.00 | 0.00 | 86 | 1021.9 |
| 20260903231238 | 65 | 329 | 1.0 | 4.0 | 0.00 | 0.00 | 0.00 | 88 | 1022.0 |
| 20260903225758 | 66 | 343 | 3.0 | 6.0 | 0.00 | 0.00 | 0.00 | 88 | 1021.9 |
| 20260903224758 | 66 | 352 | 4.0 | 4.0 | 0.00 | 0.00 | 0.00 | 88 | 1022.1 |
| 20260903223800 | 67 | 340 | 1.0 | 3.0 | 0.00 | 0.00 | 0.00 | 89 | 1021.7 |
| 20260903222800 | 67 | 247 | 1.0 | 2.0 | 0.00 | 0.00 | 0.00 | 89 | 1021.9 |
| 20260903221804 | 67 | 343 | 2.0 | 3.0 | 0.00 | 0.00 | 0.00 | 89 | 1021.9 |
| 20260903220758 | 67 | 343 | 1.0 | 3.0 | 0.00 | 0.00 | 0.00 | 89 | 1022.0 |
| 20260903220246 | 67 | 2 | 2.0 | 3.0 | 0.00 | 0.00 | 0.00 | 89 | 1021.9 |
| 20260903214758 | 67 | 28 | 1.0 | 2.0 | 0.00 | 0.00 | 0.00 | 89 | 1022.0 |
| 20260903214722 | 67 | 331 | 0.0 | 2.0 | 0.00 | 0.00 | 0.00 | 89 | 1022.0 |
| 20260903213707 | 66 | 10 | 0.0 | 2.0 | 0.00 | 0.00 | 0.00 | 89 | 1022.1 |
| 20260903211758 | 66 | 340 | 1.0 | 2.0 | 0.00 | 0.00 | 0.00 | 89 | 1022.0 |
| 20260903211240 | 67 | 338 | 2.0 | 2.0 | 0.00 | 0.00 | 0.00 | 89 | 1021.6 |
| 20260903205758 | 67 | 4 | 0.0 | 1.0 | 0.00 | 0.00 | 0.00 | 89 | 1021.5 |
| 20260903205238 | 67 | 322 | 0.0 | 2.0 | 0.00 | 0.00 | 0.00 | 89 | 1021.2 |
| 20260903203758 | 67 | 335 | 2.0 | 2.0 | 0.00 | 0.00 | 0.00 | 89 | 1021.3 |
| 20260903202758 | 67 | 121 | 0.0 | 1.0 | 0.00 | 0.00 | 0.00 | 89 | 1021.5 |
| 20260903201758 | 68 | 77 | 0.0 | 2.0 | 0.00 | 0.00 | 0.00 | 88 | 1021.1 |
| 20260903200747 | 68 | 210 | 0.0 | 1.0 | 0.00 | 0.00 | 0.00 | 88 | 1020.7 |
| 20260903200229 | 68 | 98 | 0.0 | 2.0 | 0.00 | 0.00 | 0.00 | 88 | 1020.8 |
| 20260903194746 | 68 | 111 | 0.0 | 2.0 | 0.00 | 0.00 | 0.00 | 87 | 1020.7 |
| 20260903193746 | 69 | 135 | 0.0 | 2.0 | 0.00 | 0.00 | 0.00 | 86 | 1020.5 |
| 20260903193220 | 69 | 190 | 1.0 | 2.0 | 0.00 | 0.00 | 0.00 | 85 | 1020.6 |
| 20260903192710 | 69 | 115 | 0.0 | 1.0 | 0.00 | 0.00 | 0.00 | 85 | 1020.3 |
| 20260903190746 | 69 | 68 | 0.0 | 3.0 | 0.00 | 0.00 | 0.00 | 84 | 1020.4 |
| 20260903190235 | 70 | 74 | 0.0 | 3.0 | 0.00 | 0.00 | 0.00 | 83 | 1020.3 |
| 20260903184747 | 70 | 228 | 0.0 | 3.0 | 0.00 | 0.00 | 0.00 | 83 | 1020.3 |
| 20260903183745 | 70 | 107 | 2.0 | 4.0 | 0.00 | 0.00 | 0.00 | 82 | 1020.3 |
| 20260903182746 | 70 | 139 | 1.0 | 3.0 | 0.00 | 0.00 | 0.00 | 82 | 1020.4 |
| 20260903181747 | 70 | 146 | 2.0 | 4.0 | 0.00 | 0.00 | 0.00 | 82 | 1020.6 |
| 20260903180746 | 70 | 203 | 5.0 | 7.0 | 0.00 | 0.00 | 0.00 | 82 | 1020.2 |
| 20260903180234 | 70 | 223 | 2.0 | 7.0 | 0.00 | 0.00 | 0.00 | 82 | 1020.5 |
| 20260903174746 | 70 | 170 | 3.0 | 8.0 | 0.00 | 0.00 | 0.00 | 81 | 1020.5 |
| 20260903173746 | 70 | 188 | 2.0 | 9.0 | 0.00 | 0.00 | 0.00 | 80 | 1020.6 |
| 20260903172746 | 71 | 212 | 4.0 | 10.0 | 0.00 | 0.00 | 0.00 | 79 | 1020.5 |
| 20260903171745 | 71 | 172 | 2.0 | 10.0 | 0.00 | 0.00 | 0.00 | 78 | 1020.5 |
| 20260903171223 | 71 | 215 | 3.0 | 11.0 | 0.00 | 0.00 | 0.00 | 78 | 1020.3 |
| 20260903165746 | 73 | 222 | 8.0 | 9.0 | 0.00 | 0.00 | 0.00 | 75 | 1020.3 |
| 20260903164746 | 74 | 186 | 3.0 | 9.0 | 0.00 | 0.00 | 0.00 | 73 | 1020.0 |
| 20260903163746 | 75 | 171 | 3.0 | 9.0 | 0.00 | 0.00 | 0.00 | 71 | 1019.6 |
| 20260903162746 | 76 | 156 | 5.0 | 7.0 | 0.00 | 0.00 | 0.00 | 69 | 1019.8 |
| 20260903161746 | 76 | 206 | 3.0 | 8.0 | 0.00 | 0.00 | 0.00 | 68 | 1019.7 |
| 20260903160746 | 76 | 123 | 4.0 | 9.0 | 0.00 | 0.00 | 0.00 | 69 | 1019.8 |
| 20260903155747 | 76 | 174 | 5.0 | 9.0 | 0.00 | 0.00 | 0.00 | 69 | 1019.8 |
| 20260903154746 | 77 | 185 | 4.0 | 8.0 | 0.00 | 0.00 | 0.00 | 68 | 1019.7 |
| 20260903153746 | 77 | 136 | 4.0 | 9.0 | 0.00 | 0.00 | 0.00 | 68 | 1019.9 |
| 20260903152746 | 77 | 177 | 4.0 | 8.0 | 0.00 | 0.00 | 0.00 | 68 | 1019.6 |
| 20260903151745 | 78 | 180 | 1.0 | 9.0 | 0.00 | 0.00 | 0.00 | 67 | 1019.7 |
| 20260903150746 | 77 | 220 | 4.0 | 8.0 | 0.00 | 0.00 | 0.00 | 67 | 1019.8 |
| 20260903145746 | 77 | 210 | 2.0 | 9.0 | 0.00 | 0.00 | 0.00 | 68 | 1019.9 |
| 20260903144746 | 78 | 190 | 5.0 | 8.0 | 0.00 | 0.00 | 0.00 | 67 | 1019.9 |
| 20260903144225 | 79 | 179 | 5.0 | 8.0 | 0.00 | 0.00 | 0.00 | 66 | 1019.9 |
| 20260903142746 | 78 | 142 | 2.0 | 6.0 | 0.00 | 0.00 | 0.00 | 67 | 1019.8 |
| 20260903141746 | 78 | 178 | 3.0 | 8.0 | 0.00 | 0.00 | 0.00 | 68 | 1019.9 |
| 20260903140746 | 77 | 197 | 4.0 | 8.0 | 0.00 | 0.00 | 0.00 | 70 | 1019.9 |
| 20260903140223 | 78 | 224 | 5.0 | 8.0 | 0.00 | 0.00 | 0.00 | 69 | 1020.0 |
| 20260903134746 | 78 | 175 | 5.0 | 8.0 | 0.00 | 0.00 | 0.00 | 69 | 1020.0 |
| 20260903134232 | 77 | 179 | 6.0 | 9.0 | 0.00 | 0.00 | 0.00 | 71 | 1020.1 |
| 20260903132746 | 78 | 199 | 2.0 | 9.0 | 0.00 | 0.00 | 0.00 | 70 | 1020.1 |
| 20260903131746 | 77 | 139 | 4.0 | 10.0 | 0.00 | 0.00 | 0.00 | 72 | 1020.3 |
| 20260903130746 | 76 | 202 | 2.0 | 10.0 | 0.00 | 0.00 | 0.00 | 73 | 1020.3 |
| 20260903125746 | 76 | 72 | 3.0 | 7.0 | 0.00 | 0.00 | 0.00 | 71 | 1020.5 |
| 20260903124746 | 76 | 101 | 4.0 | 8.0 | 0.00 | 0.00 | 0.00 | 72 | 1020.6 |
| 20260903123746 | 75 | 121 | 6.0 | 8.0 | 0.00 | 0.00 | 0.00 | 74 | 1020.7 |
| 20260903122746 | 74 | 117 | 1.0 | 8.0 | 0.00 | 0.00 | 0.00 | 77 | 1020.9 |
| 20260903121746 | 73 | 198 | 6.0 | 9.0 | 0.00 | 0.00 | 0.00 | 77 | 1021.1 |
| 20260903120745 | 73 | 127 | 6.0 | 7.0 | 0.00 | 0.00 | 0.00 | 76 | 1021.2 |
| 20260903115746 | 73 | 138 | 3.0 | 7.0 | 0.00 | 0.00 | 0.00 | 77 | 1021.3 |
| 20260903115144 | 73 | 224 | 1.0 | 6.0 | 0.00 | 0.00 | 0.00 | 78 | 1021.7 |
| 20260903114825 | 73 | 206 | 4.0 | 8.0 | 0.00 | 0.00 | 0.00 | 77 | 1021.5 |
| 20260903113134 | 73 | 212 | 4.0 | 8.0 | 0.00 | 0.00 | 0.00 | 78 | 1022.0 |
| 20260903112808 | 73 | 155 | 3.0 | 8.0 | 0.00 | 0.00 | 0.00 | 78 | 1021.7 |
| 20260903110746 | 73 | 181 | 3.0 | 7.0 | 0.00 | 0.00 | 0.00 | 79 | 1021.7 |
| 20260903105746 | 73 | 154 | 2.0 | 7.0 | 0.00 | 0.00 | 0.00 | 78 | 1021.7 |
| 20260903104747 | 73 | 226 | 1.0 | 9.0 | 0.00 | 0.00 | 0.00 | 78 | 1021.5 |
| 20260903103746 | 72 | 317 | 0.0 | 7.0 | 0.00 | 0.00 | 0.00 | 80 | 1021.6 |
| 20260903103240 | 73 | 123 | 2.0 | 7.0 | 0.00 | 0.00 | 0.00 | 79 | 1021.3 |
| 20260903101746 | 73 | 147 | 1.0 | 7.0 | 0.00 | 0.00 | 0.00 | 79 | 1021.2 |
| 20260903100746 | 72 | 126 | 5.0 | 6.0 | 0.00 | 0.00 | 0.00 | 80 | 1020.9 |
| 20260903095746 | 72 | 153 | 0.0 | 4.0 | 0.00 | 0.00 | 0.00 | 81 | 1021.0 |
| 20260903094746 | 72 | 48 | 0.0 | 2.0 | 0.00 | 0.00 | 0.00 | 78 | 1020.9 |
| 20260903093746 | 70 | 33 | 1.0 | 3.0 | 0.00 | 0.00 | 0.00 | 82 | 1021.0 |
| 20260903092746 | 70 | 16 | 0.0 | 3.0 | 0.00 | 0.00 | 0.00 | 84 | 1020.9 |
| 20260903091746 | 70 | 155 | 2.0 | 3.0 | 0.00 | 0.00 | 0.00 | 85 | 1021.0 |
| 20260903090746 | 70 | 350 | 0.0 | 4.0 | 0.00 | 0.00 | 0.00 | 86 | 1020.8 |
| 20260903085746 | 70 | 135 | 2.0 | 3.0 | 0.00 | 0.00 | 0.00 | 84 | 1020.7 |
| 20260903084746 | 69 | 97 | 1.0 | 2.0 | 0.00 | 0.00 | 0.00 | 86 | 1020.5 |
| 20260903083746 | 67 | 354 | 1.0 | 2.0 | 0.00 | 0.00 | 0.00 | 83 | 1020.6 |
| 20260903082746 | 68 | 352 | 1.0 | 2.0 | 0.00 | 0.00 | 0.00 | 84 | 1020.4 |
| 20260903081746 | 67 | 339 | 1.0 | 4.0 | 0.00 | 0.00 | 0.00 | 80 | 1020.4 |
| 20260903080746 | 67 | 2 | 2.0 | 4.0 | 0.00 | 0.00 | 0.00 | 78 | 1020.3 |
| 20260903075734 | 67 | 356 | 3.0 | 4.0 | 0.00 | 0.00 | 0.00 | 79 | 1020.2 |
| 20260903075211 | 67 | 353 | 4.0 | 6.0 | 0.00 | 0.00 | 0.00 | 77 | 1020.3 |
| 20260903073734 | 65 | 355 | 3.0 | 4.0 | 0.00 | 0.00 | 0.00 | 80 | 1020.2 |
| 20260903072733 | 65 | 352 | 2.0 | 4.0 | 0.00 | 0.00 | 0.00 | 85 | 1020.3 |
| 20260903072219 | 65 | 341 | 2.0 | 4.0 | 0.00 | 0.00 | 0.00 | 86 | 1020.4 |
| 20260903070733 | 65 | 337 | 2.0 | 4.0 | 0.00 | 0.00 | 0.00 | 89 | 1020.1 |
| 20260903070215 | 65 | 355 | 3.0 | 3.0 | 0.00 | 0.00 | 0.00 | 88 | 1020.2 |
| 20260903065220 | 65 | 331 | 2.0 | 4.0 | 0.00 | 0.00 | 0.00 | 87 | 1019.9 |
| 20260903063734 | 65 | 344 | 2.0 | 3.0 | 0.00 | 0.00 | 0.00 | 87 | 1019.9 |
| 20260903062734 | 64 | 325 | 2.0 | 3.0 | 0.00 | 0.00 | 0.00 | 86 | 1019.6 |
| 20260903061734 | 65 | 339 | 1.0 | 6.0 | 0.00 | 0.00 | 0.00 | 86 | 1019.5 |
| 20260903061212 | 64 | 346 | 2.0 | 4.0 | 0.00 | 0.00 | 0.00 | 87 | 1019.5 |
| 20260903055734 | 65 | 346 | 1.0 | 3.0 | 0.00 | 0.00 | 0.00 | 83 | 1019.0 |
| 20260903054735 | 64 | 326 | 2.0 | 4.0 | 0.00 | 0.00 | 0.00 | 82 | 1018.9 |
| 20260903053735 | 64 | 337 | 3.0 | 4.0 | 0.00 | 0.00 | 0.00 | 82 | 1018.6 |
| 20260903052733 | 64 | 346 | 3.0 | 3.0 | 0.00 | 0.00 | 0.00 | 82 | 1018.5 |
| 20260903051735 | 65 | 338 | 3.0 | 6.0 | 0.00 | 0.00 | 0.00 | 84 | 1018.5 |
| 20260903050734 | 64 | 323 | 2.0 | 4.0 | 0.00 | 0.00 | 0.00 | 85 | 1018.9 |
| 20260903045734 | 65 | 349 | 2.0 | 6.0 | 0.00 | 0.00 | 0.00 | 83 | 1018.7 |
| 20260903044734 | 65 | 333 | 3.0 | 4.0 | 0.00 | 0.00 | 0.00 | 86 | 1018.9 |
| 20260903043735 | 65 | 356 | 1.0 | 3.0 | 0.00 | 0.00 | 0.00 | 87 | 1018.7 |
| 20260903042733 | 65 | 358 | 2.0 | 3.0 | 0.00 | 0.00 | 0.00 | 86 | 1018.8 |
| 20260903041734 | 65 | 336 | 2.0 | 3.0 | 0.00 | 0.00 | 0.00 | 87 | 1018.7 |
| 20260903040735 | 65 | 342 | 1.0 | 3.0 | 0.00 | 0.00 | 0.00 | 85 | 1019.0 |
| 20260903035734 | 64 | 341 | 2.0 | 3.0 | 0.00 | 0.00 | 0.00 | 79 | 1018.8 |
| 20260903034734 | 64 | 335 | 2.0 | 4.0 | 0.00 | 0.00 | 0.00 | 81 | 1018.7 |
| 20260903034256 | 65 | 341 | 2.0 | 6.0 | 0.00 | 0.00 | 0.00 | 82 | 1018.7 |
| 20260903034139 | 66 | 354 | 3.0 | 4.0 | 0.00 | 0.00 | 0.00 | 85 | 1018.7 |
| 20260903031734 | 66 | 336 | 2.0 | 4.0 | 0.00 | 0.00 | 0.00 | 85 | 1018.9 |
| 20260903030734 | 65 | 349 | 2.0 | 3.0 | 0.00 | 0.00 | 0.00 | 84 | 1019.1 |
| 20260903025734 | 65 | 350 | 1.0 | 3.0 | 0.00 | 0.00 | 0.00 | 84 | 1019.1 |
| 20260903024734 | 65 | 347 | 2.0 | 4.0 | 0.00 | 0.00 | 0.00 | 83 | 1019.0 |
| 20260903023734 | 65 | 345 | 2.0 | 4.0 | 0.00 | 0.00 | 0.00 | 83 | 1019.0 |
| 20260903022733 | 65 | 1 | 4.0 | 4.0 | 0.00 | 0.00 | 0.00 | 83 | 1019.1 |
| 20260903021734 | 66 | 14 | 2.0 | 3.0 | 0.00 | 0.00 | 0.00 | 84 | 1019.1 |
| 20260903021120 | 65 | 337 | 2.0 | 6.0 | 0.00 | 0.00 | 0.00 | 84 | 1019.1 |
| 20260903020757 | 65 | 343 | 2.0 | 4.0 | 0.00 | 0.00 | 0.00 | 83 | 1019.4 |
| 20260903014734 | 65 | 343 | 3.0 | 6.0 | 0.00 | 0.00 | 0.00 | 83 | 1019.2 |
| 20260903013734 | 65 | 337 | 3.0 | 4.0 | 0.00 | 0.00 | 0.00 | 87 | 1019.4 |
| 20260903012733 | 65 | 356 | 3.0 | 4.0 | 0.00 | 0.00 | 0.00 | 87 | 1019.6 |
| 20260903011735 | 66 | 3 | 2.0 | 3.0 | 0.00 | 0.00 | 0.00 | 87 | 1019.6 |
| 20260903010734 | 66 | 342 | 2.0 | 4.0 | 0.00 | 0.00 | 0.00 | 87 | 1019.7 |
| 20260903005734 | 66 | 342 | 2.0 | 4.0 | 0.00 | 0.00 | 0.00 | 87 | 1019.5 |
| 20260903004733 | 66 | 342 | 2.0 | 4.0 | 0.00 | 0.00 | 0.00 | 86 | 1019.8 |
| 20260903003734 | 66 | 346 | 3.0 | 6.0 | 0.00 | 0.00 | 0.00 | 85 | 1019.8 |
| 20260903002734 | 66 | 338 | 4.0 | 6.0 | 0.00 | 0.00 | 0.00 | 86 | 1020.0 |
| 20260903001734 | 67 | 339 | 3.0 | 4.0 | 0.00 | 0.00 | 0.00 | 87 | 1020.2 |
| 20260903000734 | 67 | 342 | 2.0 | 3.0 | 0.00 | 0.00 | 0.00 | 86 | 1020.0 |
| 20260902235733 | 67 | 9 | 1.0 | 3.0 | 0.00 | 0.00 | 0.00 | 86 | 1019.9 |